Weather History for KNSE - December, 2013

Change the Weather History Date:

Sunday, December 8, 2013

  Actual Average Record
Temperature  
Mean Temperature 60 °F -  
Max Temperature 75 °F - - ()
Min Temperature 46 °F - - ()
Degree Days  
Heating Degree Days 4    
Growing Degree Days 10 (Base 50)    
Moisture  
Dew Point 61 °F    
Average Humidity 96    
Maximum Humidity 100    
Minimum Humidity 76    
Precipitation  
Precipitation 0.00 in - - ()
Sea Level Pressure  
Sea Level Pressure 30.11 in    
Wind  
Wind Speed 7 mph (SE)    
Max Wind Speed 21 mph    
Max Gust Speed 28 mph    
Visibility 5 miles    
Events Fog , Rain    
T = Trace of Precipitation, MM = Missing Value Source: NWS Daily Summary

Daily Weather History Graph

Daily Weather History Graph

Search for Another Location

Airport or City:

Trip Planner

Search our weather history database for the weather conditions in past years. The results will help you decide how hot, cold, wet, or windy it might be!

Date:

Astronomy

Dec. 08, 2013 Rise Set
Actual Time 6:33 AM CST 4:46 PM CST
Civil Twilight 6:07 AM CST 5:13 PM CST
Nautical Twilight 5:37 AM CST 5:43 PM CST
Astronomical Twilight 5:07 AM CST 6:12 PM CST
Moon 11:12 AM CST (12/8) 11:14 PM CST (12/8)
Length of Visible Light 11h 06m
Length of Day
10h 13m
Waxing Crescent, 40% of the Moon is Illuminated
Dec 8
Waxing Crescent
Dec 9
First Quarter
Dec 17
Full
Dec 25
Last Quarter
Jan 1
New

Hourly Weather History & Observations

Time (CST) Temp. Dew Point Humidity Pressure Visibility Wind Dir Wind Speed Gust Speed Precip Events Conditions
12:56 AM 46.9 °F 46.9 °F 100% 30.17 in 1.0 mi NNE 3.5 mph - N/A   Overcast
1:56 AM 46.9 °F 46.9 °F 100% 30.16 in 1.2 mi NNE 4.6 mph - N/A   Overcast
2:18 AM 46.9 °F 46.9 °F 100% 30.19 in 0.8 mi NE 4.6 mph - N/A   Overcast
2:56 AM 48.0 °F 48.0 °F 100% 30.15 in 1.0 mi NE 3.5 mph - N/A   Mist
3:56 AM 48.0 °F 48.0 °F 100% 30.16 in 1.5 mi Variable 3.5 mph - N/A   Overcast
4:51 AM 48.2 °F 48.2 °F 100% 30.18 in 0.8 mi Variable 3.5 mph - 0.00 in   Mist
4:56 AM 48.0 °F 48.0 °F 100% 30.15 in 0.8 mi NNE 4.6 mph - 0.00 in   Mist
5:56 AM 48.9 °F 48.9 °F 100% 30.14 in 1.0 mi East 3.5 mph - 0.00 in   Mist
6:20 AM 50.0 °F 50.0 °F 100% 30.17 in 0.8 mi East 4.6 mph - N/A   Mist
6:42 AM 50.0 °F 50.0 °F 100% 30.18 in 1.0 mi NW 4.6 mph - 0.00 in Rain Light Rain
6:53 AM 50.0 °F 50.0 °F 100% 30.17 in 0.5 mi Calm Calm - 0.00 in Fog , Rain Light Rain
6:56 AM 50.0 °F 50.0 °F 100% 30.15 in 0.5 mi North 3.5 mph - 0.00 in Fog Fog
7:56 AM 51.1 °F 51.1 °F 100% 30.15 in 0.5 mi ENE 4.6 mph - 0.00 in Fog , Rain Light Rain
8:16 AM 52.0 °F 52.0 °F 100% 30.18 in 1.0 mi East 4.6 mph - 0.00 in   Overcast
8:56 AM 54.0 °F 54.0 °F 100% 30.15 in 1.2 mi East 4.6 mph - 0.00 in   Overcast
9:12 AM 55.0 °F 55.0 °F 100% 30.18 in 2.0 mi ESE 3.5 mph - N/A   Overcast
9:21 AM 55.9 °F 55.9 °F 100% 30.18 in 1.5 mi ESE 5.8 mph - N/A   Overcast
9:54 AM 57.2 °F 57.2 °F 100% 30.16 in 3.0 mi ESE 11.5 mph - 0.00 in Rain Light Rain
9:56 AM 57.9 °F 57.9 °F 100% 30.12 in 3.0 mi ESE 10.4 mph - 0.00 in Rain Light Rain
10:56 AM 63.0 °F 63.0 °F 100% 30.11 in 9.0 mi Variable 3.5 mph - 0.00 in   Overcast
11:08 AM 64.0 °F 64.0 °F 100% 30.15 in 9.0 mi Variable 3.5 mph - N/A   Overcast
11:45 AM 68.0 °F 66.0 °F 93% 30.11 in 10.0 mi ESE 9.2 mph - N/A   Overcast
11:56 AM 69.1 °F 66.9 °F 93% 30.07 in 10.0 mi SE 8.1 mph - N/A   Overcast
12:30 PM 73.0 °F 68.0 °F 84% 30.10 in 10.0 mi SE 10.4 mph - N/A   Mostly Cloudy
12:56 PM 73.9 °F 69.1 °F 85% 30.05 in 10.0 mi South 9.2 mph - N/A   Mostly Cloudy
1:37 PM 75.9 °F 68.0 °F 76% 30.08 in 10.0 mi South 19.6 mph 27.6 mph N/A   Mostly Cloudy
1:56 PM 75.9 °F 69.1 °F 79% 30.03 in 10.0 mi South 20.7 mph 26.5 mph N/A   Mostly Cloudy
2:56 PM 75.0 °F 69.1 °F 82% 30.04 in 10.0 mi South 13.8 mph - N/A   Mostly Cloudy
3:45 PM 73.9 °F 70.0 °F 87% 30.08 in 10.0 mi South 11.5 mph - N/A   Mostly Cloudy
3:56 PM 73.9 °F 70.0 °F 87% 30.04 in 10.0 mi South 15.0 mph - N/A   Mostly Cloudy
4:56 PM 71.1 °F 70.0 °F 96% 30.05 in 10.0 mi South 8.1 mph - N/A   Scattered Clouds
5:56 PM 70.0 °F 68.0 °F 93% 30.05 in 9.0 mi SSE 5.8 mph - N/A   Scattered Clouds
6:48 PM 70.0 °F 68.0 °F 93% 30.10 in 7.0 mi SSE 8.1 mph - N/A   Mostly Cloudy
6:56 PM 70.0 °F 68.0 °F 93% 30.06 in 6.0 mi SSE 9.2 mph - N/A   Mostly Cloudy
7:16 PM 70.0 °F 68.0 °F 93% 30.10 in 6.0 mi SSE 9.2 mph - N/A   Mostly Cloudy
7:19 PM 70.0 °F 68.0 °F 93% 30.10 in 1.0 mi SSE 10.4 mph - N/A   Overcast
7:56 PM 70.0 °F 68.0 °F 93% 30.05 in 1.0 mi SSE 10.4 mph - N/A   Overcast
8:07 PM 70.0 °F 70.0 °F 100% 30.09 in 6.0 mi SSE 9.2 mph - N/A   Overcast
8:56 PM 71.1 °F 70.0 °F 96% 30.05 in 6.0 mi SSE 12.7 mph - N/A   Overcast
9:56 PM 71.1 °F 71.1 °F 100% 30.06 in 6.0 mi South 10.4 mph - N/A   Overcast
10:22 PM 72.0 °F 72.0 °F 100% 30.10 in 8.0 mi South 12.7 mph - N/A   Overcast
10:32 PM 72.0 °F 72.0 °F 100% 30.10 in 8.0 mi South 11.5 mph - N/A   Overcast
10:56 PM 72.0 °F 72.0 °F 100% 30.05 in 8.0 mi South 16.1 mph - N/A   Overcast
11:56 PM 71.1 °F 71.1 °F 100% 30.04 in 9.0 mi South 13.8 mph 23.0 mph 0.00 in   Overcast